Tracking 21476 objects as of 29-Sep-2020
HD Live streaming from Space Station
objects crossing your sky now

ARIANE 40 R/B

Track ARIANE 40 R/B now!
10-day predictions


NORAD ID: 25979
Int'l Code: 1999-064C
Perigee: 582.4 km
Apogee: 590.2 km
Inclination: 98.1 °
Period: 96.3 minutes
Semi major axis: 6957 km
RCS: 12.2393 m2 (large)
Launch date: December 3, 1999
Source: France (FR)
Launch site: FRENCH GUIANA (FRGUI)

Note: This is a ROCKET BODY
aabbcc
Your satellite tracking list
Your tracking list is empty




NASA's NSSDC Master Catalog

Two Line Element Set (TLE):
1 25979U 99064C   20272.84864878 +.00000450 +00000-0 +45704-4 0  9999
2 25979 098.1431 195.0594 0005606 320.8849 039.1965 14.96046939129482
Source of the keplerian elements: AFSPC